Location: Livorno
(43.5500°N, 10.3170°E)
Time: 20:11:23
(UTC+01:00)

Envisat - Pass Details

Date: 03 November 2020
Orbit: 764 x 766 km, 98.1° (Epoch: 05 December)

Event Time Altitude Azimuth Distance (km) Brightness Sun altitude
Rises 18:14:40 0° 194° (SSW) 3,219 6.6 -12.7°
Reaches altitude 10° 18:17:15 10° 205° (SSW) 2,298 5.9 -13.2°
Maximum altitude 18:21:38 29° 265° (W) 1,379 5.2 -14.0°
Drops below altitude 10° 18:26:02 10° 325° (NW) 2,312 5.8 -14.8°
Sets 18:28:39 0° 337° (NNW) 3,243 6.5 -15.2°
